Regional Weather Roundup
Issued by NWS

Home | Current Version | Previous Version | Text Only | Print | Product List | Glossary Off
Versions: 1 2 3 4 5 6 7 8 9 10 11 12 13 14 15 16 17 18 19 20 21 22 23 24 25 26 27 28 29 30 31 32 33 34 35 36 37 38 39 40 41 42 43 44 45 46 47 48 49 50

000
ASUS43 KLOT 061600
RWRIL

ILLINOIS REGIONAL WEATHER ROUNDUP
NATIONAL WEATHER SERVICE CHICAGO/ROMEOVILLE IL
1000 AM CST FRI MAR 06 2015

NOTE: "FAIR" INDICATES FEW OR NO CLOUDS BELOW 12,000 FEET WITH NO
SIGNIFICANT WEATHER AND/OR OBSTRUCTIONS TO VISIBILITY.

* THESE STATIONS ARE NOT UNDER NWS QUALITY CONTROL. THEY ALSO MAY NOT
  REPORT WEATHER SUCH AS PRECIPITATION OR FOG.

ILZ001-002-007-009-015-016-024-061700-
NORTHWEST ILLINOIS

CITY           SKY/WX    TMP DP  RH WIND       PRES   REMARKS
MOLINE         MOSUNNY   23   9  55 S9G18     30.28F WCI  13
STERLING*      SUNNY     19   9  63 S7        30.31F WCI  10
$$

ILZ003-004-008-010-011-017-018-061700-
NORTH CENTRAL ILLINOIS

CITY           SKY/WX    TMP DP  RH WIND       PRES   REMARKS
ROCKFORD       MOSUNNY   15   5  64 S18G26    30.33F WCI  -2
$$

ILZ005-006-012>014-019>023-061700-
NORTHEAST ILLINOIS

CITY           SKY/WX    TMP DP  RH WIND       PRES   REMARKS
CHICAGO-OHARE  MOSUNNY   16   4  59 S15       30.37F WCI   1
CHICAGO-MIDWAY MOSUNNY   16   3  56 S16G29    30.40F WCI   1
AURORA         SUNNY     13   3  64 S16       30.37F WCI  -3
WAUKEGAN       MOSUNNY   17   5  59 SW22      30.33F WCI   0
DUPAGE AIRPORT SUNNY     13   2  61 S21       30.37F WCI  -5
WHEELING       SUNNY     17   3  54 S18       30.38F WCI   1
NORTHERLY ISL    N/A     16   1  51 S18         N/A  WCI   0
$$

LMZ740>746-061700-
SOUTHERN LAKE MICHIGAN

STATION/POSITION SKY/WX   TEMP    WIND        PRES    VSBY  WAVE
                          AIR SEA DIR/SP/G                  HT/PER
                          (F)     (DEG/KT/KT) (MB)    (MI)  (FT/S)
WAUKEGAN HARBOR            16                   N/A
HARRISON CRIB              13     200/ 21/ 25   N/A
BURNHAM HARBOR             16     200/ 14/ 17   N/A
CALUMET HARBOR             14     190/ 11/ 13 1028.9F
MICHIGAN CITY               9     180/ 12/ 17   N/A
$$

ILZ025>027-034>036-040-047-049-050-058-095>099-061700-
WEST-CENTRAL ILLINOIS

CITY           SKY/WX    TMP DP  RH WIND       PRES   REMARKS
QUINCY         PTSUNNY   27  12  53 S17G25    30.31F WCI  14
$$

ILZ028>032-037-038-041>044-048-051>054-059>061-061700-
CENTRAL ILLINOIS

CITY           SKY/WX    TMP DP  RH WIND       PRES   REMARKS
DECATUR        SUNNY     15   6  67 S16       30.47F WCI  -1
PEORIA         MOSUNNY   20   9  62 S22G28    30.37F WCI   3
SPRINGFIELD    MOSUNNY   20   9  62 S18       30.42F WCI   5
TAYLORVILLE    NOT AVBL
$$

ILZ033-039-045-046-055>057-062-063-061700-
EAST-CENTRAL ILLINOIS

CITY           SKY/WX    TMP DP  RH WIND       PRES   REMARKS
CHAMPAIGN      SUNNY     12   5  73 S17       30.47F WCI  -5
MATTOON        SUNNY     14   5  67 S12       30.49F WCI   0
$$

ILZ079-100>102-061700-
SOUTHWEST ILLINOIS

CITY           SKY/WX    TMP DP  RH WIND       PRES   REMARKS
ALTON          SUNNY     23  10  58 S14       30.48F WCI  11
BELLEVILLE     SUNNY     24  13  63 S9        30.50F WCI  15
CAHOKIA*       SUNNY     26  13  57 S14       30.49F WCI  14
$$

ILZ064>066-069>071-074>076-080>082-084>086-088>090-092>094-061700-
SOUTH-CENTRAL ILLINOIS

CITY           SKY/WX    TMP DP  RH WIND       PRES   REMARKS
CARBONDALE     SUNNY     20   7  57 S10       30.58F WCI   9
MARION         SUNNY     21   9  58 S12       30.59F WCI   9
MT. VERNON     SUNNY     19   9  63 S10       30.57S WCI   8
$$

ILZ067-068-072-073-078-083-087-091-061700-
SOUTHEAST ILLINOIS

CITY           SKY/WX    TMP DP  RH WIND       PRES   REMARKS
LAWRENCEVILLE  SUNNY     16   8  71 S5        30.59F WCI   9
$$

ABBREVIATIONS USED IN REMARKS
   TC - TEMPERATURE IN CELSIUS
  WCI - WIND CHILL INDEX
   HX - HEAT INDEX
  VSB - VISIBILITY
$$



USA.gov is the U.S. government's official web portal to all federal, state and local government web resources and services.